[[{"header":{"parameterUnit":"m.s-1","parameterCategory":1,"la1":30.2991,"la2":30.254,"lo1":-89.0895,"lo2":-89.0444,"dy":0.0017,"dx":0.0017,"nx":28,"ny":28,"refTime":"2025-04-04T21:00:00:Z","depth":0,"parameterNumber":2,"parameterNumberName":"U-component_of_WINDS"},"data":[0,0,0,0,0,0,0,0,0,0,0,0,0,0,0,0,0,0,0,0,0,0,0,0,0,0,0,0,0,0,0,0,0,0,0,0,0,0,0,0,0,0,0,0,0,0,0,0,0,0,0,0,0,0,0,0,0,0,-3.1087,-3.1088,0,-3.1207,-3.1208,-3.1209,-3.1248,-3.1247,-3.1247,-3.1246,-3.1372,-3.1376,-3.138,0,0,0,0,0,0,0,0,0,0,0,0,0,-3.0894,-3.0897,-3.1086,-3.1088,-3.1089,-3.1206,-3.1208,-3.121,-3.1248,-3.1247,-3.1247,-3.1246,-3.1371,-3.1375,-3.138,0,0,0,0,0,0,0,0,0,0,0,0,0,-3.0992,-3.0898,-3.1086,-3.1123,-3.1127,-3.1206,-3.1208,-3.121,-3.1248,-3.1247,-3.1246,-3.1246,-3.1369,-3.1375,-3.1381,-3.1433,0,0,-3.1398,-3.1401,0,0,0,0,0,0,0,0,-3.0986,-3.0999,-3.1116,-3.112,-3.1125,-3.1211,-3.1186,-3.1285,-3.1248,-3.1202,-3.1246,-3.1245,-3.1319,-3.1329,-3.1354,-3.1439,-3.1444,-3.1399,-3.1402,-3.1405,-3.1407,0,0,0,0,0,0,0,-3.098,-3.0994,-3.1134,-3.1117,-3.1123,-3.1134,-3.1147,-3.1205,-3.1264,-3.1206,-3.1209,-3.1223,-3.1322,-3.1348,-3.1357,-3.1446,-3.1399,-3.1404,-3.1407,-3.141,-3.1582,-3.1583,0,0,0,0,0,0,-3.0966,-3.0988,-3.113,-3.1138,-3.1052,-3.1138,-3.1153,-3.1185,-3.1264,-3.1275,-3.1223,-3.1224,-3.1339,-3.135,-3.1362,-3.1428,-3.1405,-3.141,-3.1414,-3.1581,-3.1582,-3.1583,0,0,0,0,0,0,-3.0962,-3.0978,-3.1125,-3.1064,-3.1083,-3.1142,-3.1178,-3.1187,-3.1214,-3.1277,-3.1288,-3.1239,-3.1338,-3.1353,-3.1415,-3.1433,-3.1413,-3.1418,-3.1579,-3.1581,-3.1582,-3.1562,0,0,0,0,0,0,-3.0956,-3.0977,-3.0996,-3.1064,-3.1086,-3.1176,-3.1179,-3.119,-3.1223,-3.1225,-3.1294,-3.1305,-3.1339,-3.1406,-3.1421,-3.1441,-3.1423,-3.1578,-3.158,-3.1582,-3.1561,-3.1562,-3.1564,0,0,0,0,0,-3.0949,-3.0986,-3.0997,-3.1014,-3.1112,-3.1176,-3.119,-3.1227,-3.1224,-3.1245,-3.1286,-3.1303,-3.1429,-3.1412,-3.1429,-3.1451,-3.1577,-3.1579,-3.1582,-3.156,-3.1562,-3.1564,0,0,0,0,0,0,-3.092,-3.0996,-3.1008,-3.1068,-3.1115,-3.1183,-3.121,-3.1228,-3.1278,-3.1278,-3.1323,-3.1339,-3.1397,-3.1431,-3.141,-3.1506,-3.1504,-3.151,-3.1482,-3.1484,-3.1485,-3.1476,-3.1427,0,0,0,0,0,-3.092,-3.0965,-3.1029,-3.1076,-3.1099,-3.115,-3.118,-3.1205,-3.1256,-3.1277,-3.1322,-3.1372,-3.1423,-3.1456,-3.1506,-3.1567,-3.1583,-3.159,-3.1592,-3.1592,-3.1597,-3.1632,-3.1636,-3.1591,-3.1591,-3.1591,0,0,-3.0921,-3.0968,-3.0994,-3.1071,-3.1111,-3.1157,-3.1167,-3.1216,-3.1251,-3.1284,-3.1345,-3.138,-3.1439,-3.15,-3.153,-3.153,-3.1613,-3.1596,-3.1596,-3.16,-3.1635,-3.1639,-3.1643,-3.1593,-3.1592,-3.1592,0,0,-3.0947,-3.0987,-3.103,-3.107,-3.1129,-3.1164,-3.1174,-3.1239,-3.1263,-3.1325,-3.1351,-3.1395,-3.1482,-3.1523,-3.1555,-3.1598,-3.1615,-3.1613,-3.162,-3.1653,-3.1657,-3.166,-3.1676,-3.1681,-3.1618,-3.1618,-3.1618,0,-3.0941,-3.1011,-3.1051,-3.1098,-3.1132,-3.1164,-3.1208,-3.1245,-3.1319,-3.1342,-3.1341,-3.1451,-3.1493,-3.1565,-3.1575,-3.1601,-3.1615,-3.1605,-3.1653,-3.1657,-3.1661,-3.1676,-3.1681,-3.1617,-3.1617,-3.1617,-3.1617,0,-3.1001,-3.105,-3.1078,-3.1147,-3.1184,-3.123,-3.1277,-3.131,-3.1332,-3.1367,-3.143,-3.1482,-3.1543,-3.1563,-3.1585,-3.1638,-3.1636,-3.1644,-3.1642,-3.1663,-3.1678,-3.1685,-3.1616,-3.1616,-3.1616,-3.1616,0,0,-3.1011,-3.1101,-3.1111,-3.1143,-3.1212,-3.1251,-3.1299,-3.1358,-3.1386,-3.1436,-3.1478,-3.1551,-3.1559,-3.1596,-3.1624,-3.1653,-3.1684,-3.1658,-3.166,-3.166,-3.1746,-3.1739,-3.1745,-3.1697,-3.1698,-3.1699,-3.1741,0,-3.1045,-3.1131,-3.1168,-3.1237,-3.1283,-3.1314,-3.1357,-3.1404,-3.1438,-3.1483,-3.1521,-3.1572,-3.1579,-3.1601,-3.1632,-3.1674,-3.1702,-3.1671,-3.1737,-3.1739,-3.172,-3.1753,-3.1746,-3.1783,-3.1747,-3.1748,-3.1749,0,-3.1097,-3.1146,-3.1219,-3.1283,-3.1303,-3.134,-3.1398,-3.144,-3.1495,-3.1518,-3.1559,-3.1586,-3.1639,-3.1635,-3.1709,-3.1687,-3.1717,-3.1742,-3.1744,-3.1751,-3.1744,-3.176,-3.1795,-3.18,-3.1758,-3.1758,-3.1757,0,-3.1096,-3.1181,-3.1236,-3.1262,-3.1338,-3.1363,-3.1396,-3.145,-3.1484,-3.1535,-3.1558,-3.1615,-3.1646,-3.1691,-3.1733,-3.1726,-3.1803,-3.1802,-3.1824,-3.1823,-3.1839,-3.1837,-3.1878,-3.1858,-3.1858,-3.1858,-3.1858,0,-3.113,-3.1173,-3.1236,-3.127,-3.132,-3.1363,-3.1412,-3.1448,-3.1496,-3.1538,-3.157,-3.1609,-3.1662,-3.1709,-3.1742,-3.1799,-3.1813,-3.1834,-3.1842,-3.183,-3.1828,-3.185,-3.1848,-3.186,-3.1859,-3.1859,-3.1859,0,-3.1137,-3.1181,-3.1242,-3.1309,-3.1327,-3.1361,-3.1419,-3.1453,-3.1489,-3.1542,-3.1557,-3.1614,-3.1671,-3.1717,-3.1791,-3.1814,-3.1873,-3.1883,-3.1854,-3.1858,-3.1877,-3.1875,-3.1934,-3.1944,-3.1917,-3.1918,-3.1918,0,-3.1155,-3.119,-3.126,-3.129,-3.1322,-3.137,-3.1404,-3.1449,-3.1484,-3.1549,-3.1576,-3.1635,-3.1684,-3.1772,-3.1821,-3.1879,-3.189,-3.1907,-3.1899,-3.1886,-3.189,-3.1887,-3.1891,-3.1907,-3.1907,-3.1907,-3.1907,0,-3.1184,-3.1204,-3.1251,-3.1307,-3.1347,-3.1393,-3.144,-3.1463,-3.1517,-3.1554,-3.1612,-3.165,-3.1725,-3.1783,-3.1846,-3.1881,-3.1904,-3.1909,-3.1918,-3.1906,-3.1887,-3.1897,-3.1855,-3.1908,-3.1907,-3.1907,-3.1907,-3.1907,-3.1197,-3.1229,-3.1283,-3.1336,-3.1375,-3.1419,-3.1455,-3.1495,-3.1543,-3.1607,-3.1631,-3.169,-3.1746,-3.1832,-3.1868,-3.1916,-3.1918,-3.193,-3.1933,-3.1935,-3.1933,-3.188,-3.1927,-3.1927,-3.1927,-3.1928,-3.1928,0,-3.1227,-3.1264,-3.1311,-3.1375,-3.1417,-3.1433,-3.1486,-3.152,-3.1571,-3.1621,-3.1668,-3.1735,-3.1791,-3.1845,-3.1904,-3.1932,-3.1944,-3.1946,-3.1944,-3.1952,-3.1928,-3.1914,-3.1936,-3.1936,-3.1936,-3.1936,-3.1936,-3.1936,-3.1247,-3.1302,-3.1328,-3.1404,-3.1441,-3.1497,-3.1526,-3.1567,-3.1607,-3.1679,-3.1726,-3.176,-3.1812,-3.1875,-3.1928,-3.1943,-3.1963,-3.1963,-3.198,-3.1956,-3.1954,-3.1953,-3.194,-3.1967,-3.1967,-3.2001,-3.2001,-3.2001]},{"header":{"parameterUnit":"m.s-1","parameterCategory":1,"la1":30.2991,"la2":30.254,"lo1":-89.0895,"lo2":-89.0444,"dy":0.0017,"dx":0.0017,"nx":28,"ny":28,"refTime":"2025-04-04T21:00:00:Z","depth":0,"parameterNumber":3,"parameterNumberName":"V-component_of_WINDS"},"data":[0,0,0,0,0,0,0,0,0,0,0,0,0,0,0,0,0,0,0,0,0,0,0,0,0,0,0,0,0,0,0,0,0,0,0,0,0,0,0,0,0,0,0,0,0,0,0,0,0,0,0,0,0,0,0,0,0,0,6.3868,6.3869,0,6.3954,6.3955,6.3956,6.3916,6.3914,6.3912,6.3909,6.3997,6.4001,6.4006,0,0,0,0,0,0,0,0,0,0,0,0,0,6.3671,6.3674,6.3868,6.3869,6.387,6.3953,6.3955,6.3956,6.3916,6.3914,6.3911,6.3908,6.3996,6.4001,6.4006,0,0,0,0,0,0,0,0,0,0,0,0,0,6.3756,6.3676,6.3867,6.386,6.386,6.3953,6.3955,6.3956,6.3917,6.3914,6.391,6.3907,6.3994,6.4,6.4007,6.4112,0,0,6.4027,6.4029,0,0,0,0,0,0,0,0,6.3751,6.3764,6.386,6.3861,6.3861,6.3921,6.3917,6.4008,6.3918,6.3895,6.3909,6.3906,6.3974,6.3982,6.4005,6.4116,6.4119,6.4027,6.4031,6.4034,6.4036,0,0,0,0,0,0,0,6.3746,6.376,6.3902,6.3862,6.3862,6.3853,6.3862,6.3934,6.3952,6.3897,6.3894,6.3905,6.3974,6.3999,6.4007,6.4121,6.4027,6.4033,6.4037,6.4039,6.4325,6.4329,0,0,0,0,0,0,6.374,6.3755,6.3899,6.3904,6.3797,6.3859,6.3869,6.3905,6.3951,6.3955,6.3908,6.3903,6.399,6.4,6.401,6.4139,6.4034,6.404,6.4044,6.4321,6.4326,6.433,0,0,0,0,0,0,6.3736,6.3753,6.3895,6.3829,6.3846,6.3866,6.3907,6.3908,6.3934,6.3959,6.3962,6.393,6.3987,6.4001,6.4088,6.4141,6.4043,6.4049,6.4317,6.4323,6.4328,6.4395,0,0,0,0,0,0,6.373,6.3752,6.3791,6.383,6.385,6.3971,6.391,6.3912,6.3945,6.3939,6.3981,6.3985,6.3986,6.4078,6.4094,6.4148,6.4054,6.4312,6.432,6.4326,6.4388,6.4402,6.4414,0,0,0,0,0,6.3723,6.3806,6.3793,6.3811,6.39,6.3974,6.3986,6.3985,6.3949,6.399,6.4007,6.3984,6.4132,6.4087,6.4105,6.4162,6.4309,6.4318,6.4326,6.4382,6.4399,6.4414,0,0,0,0,0,0,6.3772,6.3811,6.3797,6.3895,6.3932,6.3967,6.4018,6.4003,6.4051,6.4043,6.4041,6.4051,6.4141,6.416,6.4109,6.4267,6.4215,6.4227,6.4252,6.4269,6.4281,6.4276,6.4059,0,0,0,0,0,6.3794,6.3851,6.3882,6.3965,6.3984,6.3999,6.4031,6.4028,6.4065,6.4081,6.4104,6.4142,6.4197,6.4233,6.4286,6.439,6.44,6.4438,6.4451,6.4462,6.4473,6.4533,6.4551,6.4357,6.4357,6.4357,0,0,6.384,6.3869,6.3904,6.3976,6.4004,6.4064,6.4012,6.4076,6.4122,6.409,6.4175,6.4193,6.4235,6.4332,6.4376,6.435,6.4529,6.4472,6.4481,6.4486,6.4543,6.4561,6.4578,6.4363,6.4362,6.4361,0,0,6.3956,6.3982,6.4056,6.4086,6.4129,6.4139,6.4156,6.4195,6.4207,6.4291,6.427,6.4323,6.4418,6.445,6.4479,6.4609,6.4591,6.4626,6.4695,6.4753,6.4768,6.4782,6.4831,6.4848,6.4637,6.4637,6.4637,0,6.4008,6.4097,6.4095,6.4163,6.4196,6.4172,6.4247,6.4276,6.4335,6.4358,6.4329,6.445,6.4476,6.4582,6.4614,6.4637,6.4659,6.4622,6.4766,6.4779,6.4792,6.4839,6.4857,6.4641,6.4641,6.464,6.464,0,6.416,6.4223,6.4277,6.4336,6.4375,6.4446,6.4456,6.4496,6.449,6.4502,6.459,6.4621,6.4681,6.4705,6.4699,6.4811,6.4794,6.4765,6.4713,6.4815,6.4859,6.4877,6.4647,6.4646,6.4644,6.4643,0,0,6.4308,6.4367,6.4387,6.4415,6.4462,6.4511,6.4582,6.4641,6.4676,6.4718,6.4778,6.4861,6.4835,6.4868,6.4865,6.4916,6.5021,6.4882,6.4883,6.4909,6.5149,6.5172,6.5193,6.5009,6.5012,6.5015,6.5147,0,6.4429,6.4554,6.4556,6.4671,6.473,6.4709,6.4771,6.4808,6.4822,6.4875,6.489,6.495,6.491,6.493,6.4979,6.4998,6.507,6.4988,6.5067,6.507,6.5059,6.5216,6.5239,6.5362,6.5164,6.5167,6.5169,0,6.4587,6.4635,6.4757,6.4799,6.4823,6.4879,6.4935,6.4985,6.5027,6.5034,6.5072,6.5062,6.5136,6.5081,6.5184,6.5128,6.5161,6.5175,6.518,6.5188,6.5127,6.5231,6.5401,6.5421,6.5195,6.5193,6.5191,0,6.4686,6.4781,6.4867,6.4891,6.4941,6.4981,6.5004,6.5043,6.5079,6.5128,6.5152,6.5208,6.5239,6.5283,6.529,6.5249,6.5395,6.5339,6.5404,6.5404,6.5437,6.5435,6.5617,6.5454,6.5454,6.5453,6.5453,0,6.4822,6.4898,6.4913,6.4966,6.5051,6.5052,6.5136,6.5156,6.5191,6.5248,6.5232,6.5286,6.5291,6.5347,6.5353,6.5439,6.5452,6.5461,6.5462,6.5464,6.5463,6.5486,6.5479,6.5458,6.5457,6.5456,6.5455,0,6.4947,6.496,6.5053,6.5093,6.5106,6.5167,6.5202,6.5253,6.5266,6.5339,6.5356,6.5377,6.5443,6.5454,6.553,6.5534,6.5638,6.5629,6.5624,6.5624,6.5689,6.5684,6.5894,6.5923,6.5739,6.5741,6.5742,0,6.5034,6.5093,6.514,6.5178,6.5203,6.5263,6.5301,6.5305,6.5345,6.5399,6.5444,6.5508,6.556,6.5665,6.5688,6.5747,6.5741,6.581,6.575,6.5751,6.5745,6.5742,6.5749,6.5823,6.5825,6.5826,6.5828,0,6.5188,6.5192,6.5247,6.5306,6.5351,6.5397,6.544,6.5472,6.5482,6.5528,6.5595,6.5636,6.5715,6.578,6.5839,6.5863,6.5848,6.5847,6.5865,6.5869,6.5865,6.587,6.5659,6.5842,6.5841,6.5839,6.5839,6.5838,6.5299,6.5351,6.5393,6.5456,6.5489,6.5531,6.5582,6.5602,6.5659,6.5724,6.5723,6.5798,6.584,6.5918,6.5947,6.6006,6.5983,6.6009,6.6017,6.6024,6.6031,6.5854,6.6016,6.6016,6.6015,6.6015,6.6015,0,6.5454,6.5481,6.5539,6.5601,6.5651,6.5632,6.568,6.5723,6.5789,6.583,6.5882,6.5961,6.6024,6.6052,6.6114,6.6156,6.6152,6.6173,6.6171,6.6177,6.6046,6.6025,6.6176,6.6176,6.6176,6.6176,6.6176,6.6176,6.5541,6.5629,6.5639,6.5744,6.577,6.5843,6.5873,6.5911,6.5945,6.6034,6.6086,6.6104,6.6141,6.6206,6.6264,6.6271,6.6296,6.6321,6.6325,6.6202,6.6186,6.6171,6.6151,6.6326,6.6326,6.6451,6.6453,6.6453]}]]